Torna al catalogo

STARLINK-35068

AttivoComunicazioniSSO
NORAD 65438·PAYLOAD·🇺🇸 United States

Lanciato Sep 3, 2025 da Vandenberg Space Force Base

Loading…

Prossimi Passaggi (prossime 24 ore)

TLE

AggiornatoSource: CelesTrak SupGP

Epoca: Sep 15, 2026, 03:54 UTC

1 65438C 25194E   26258.16298611 -.00036013  00000+0 -11170-2 0  2588
2 65438  97.2850 107.8972 0001910  91.4133 176.3284 15.33481967    14

Traccia STARLINK-35068 in tempo reale con AllMySat

Download on the App Store